"America/Chicago Time","Lifetime Energy (kWh)","Power (W)","AC Volts RMS (V) ","AC Amps RMS (mA)","Grid Frequency (Hz)","Inverter Temperature (C)"
"06/08/12 05:52:48","95.3893","0.0","213.68","0","60.0","21"
"06/08/12 06:02:45","95.3898","0.0","213.37","30","60.0","22"
"06/08/12 06:07:44","95.39","0.0","213.53","0","60.03","22"
"06/08/12 06:12:45","95.3904","0.0","213.0","0","60.0","22"
"06/08/12 06:17:46","95.3907","0.0","212.44","0","60.0","22"
"06/08/12 06:22:45","95.3912","0.0","216.75","94","60.03","22"
"06/08/12 06:27:44","95.3917","15.6","211.02","0","60.03","23"
"06/08/12 06:32:45","95.3924","7.0","213.27","0","60.03","23"
"06/08/12 06:37:46","95.3933","12.4","213.89","44","60.0","23"
"06/08/12 06:42:45","95.3943","24.0","213.72","266","60.0","23"
"06/08/12 06:47:44","95.3956","13.7","214.11","3","60.03","24"
"06/08/12 06:52:44","95.3972","20.6","215.17","249","60.0","24"
"06/08/12 06:57:44","95.3989","22.5","215.06","274","60.03","24"
"06/08/12 07:02:45","95.401","29.9","215.35","187","60.0","25"
"06/08/12 07:07:45","95.4033","27.4","213.72","143","60.03","25"
"06/08/12 07:17:45","95.4087","35.2","214.19","227","60.0","26"
"06/08/12 07:22:46","95.4119","48.6","214.95","347","59.96","26"
"06/08/12 07:27:44","95.4153","41.1","214.71","249","60.0","27"
"06/08/12 07:32:45","95.4192","40.4","215.2","275","60.03","27"
"06/08/12 07:37:45","95.4231","51.6","214.67","139","60.0","28"
"06/08/12 07:42:45","95.427","44.5","214.76","335","60.07","28"
"06/08/12 07:47:45","95.4311","61.1","215.27","385","60.0","29"
"06/08/12 07:52:45","95.4358","77.0","215.61","378","60.03","29"
"06/08/12 07:57:45","95.442","82.0","215.69","399","60.0","30"
"06/08/12 08:02:45","95.4483","81.3","215.76","400","60.03","31"
"06/08/12 08:07:44","95.4548","84.5","215.73","409","60.0","31"
"06/08/12 08:12:45","95.4611","74.6","215.02","371","60.0","31"
"06/08/12 08:17:46","95.4666","68.9","214.25","338","60.0","32"
"06/08/12 08:22:46","95.4699","30.5","214.28","278","60.03","32"
"06/08/12 08:27:46","95.472","22.8","212.64","185","60.0","31"
"06/08/12 08:32:45","95.4743","38.2","214.13","238","60.03","30"
"06/08/12 08:37:46","95.4777","48.1","214.63","363","60.03","30"
"06/08/12 08:42:46","95.4816","42.5","215.11","376","60.03","29"
"06/08/12 08:47:45","95.4868","74.0","214.35","368","60.03","30"
"06/08/12 08:52:46","95.4929","80.1","215.14","395","60.0","30"
"06/08/12 08:57:45","95.4984","43.7","214.81","406","60.03","30"
"06/08/12 09:02:44","95.5034","65.7","215.58","332","60.03","30"
"06/08/12 09:07:45","95.511","106.8","216.12","507","60.0","31"
"06/08/12 09:12:46","95.5194","85.4","215.72","414","60.03","31"
"06/08/12 09:17:45","95.5257","76.6","215.25","375","60.03","31"
"06/08/12 09:22:45","95.5305","53.5","215.21","311","60.0","31"
"06/08/12 09:27:45","95.5345","56.6","214.29","119","60.03","30"
"06/08/12 09:32:45","95.5383","42.6","212.95","334","60.03","30"
"06/08/12 09:37:45","95.5421","49.1","213.34","367","60.03","29"
"06/08/12 09:42:45","95.546","44.7","214.28","172","60.03","29"
"06/08/12 09:47:45","95.55","51.8","214.31","190","60.0","29"
"06/08/12 09:52:44","95.5539","48.7","214.59","298","60.0","29"
"06/08/12 09:57:46","95.5578","53.9","216.89","328","60.03","29"
"06/08/12 10:02:45","95.5617","56.8","216.33","356","60.03","29"
"06/08/12 10:07:45","95.5665","95.1","216.82","457","60.0","29"
"06/08/12 10:12:45","95.5728","67.1","215.65","339","60.0","30"
"06/08/12 10:17:44","95.5768","43.7","214.72","428","60.03","30"
"06/08/12 10:22:44","95.5801","41.7","214.67","292","60.03","29"
"06/08/12 10:27:45","95.5826","32.7","215.03","188","60.03","30"
"06/08/12 10:32:44","95.5848","33.5","215.2","179","60.0","29"
"06/08/12 10:37:46","95.5875","45.4","214.56","118","60.03","29"
"06/08/12 10:42:45","95.5907","38.5","213.96","112","60.0","29"
"06/08/12 10:47:46","95.5938","35.8","215.17","145","60.0","29"
"06/08/12 10:52:46","95.5971","36.2","214.48","230","60.0","29"
"06/08/12 10:57:45","95.6","31.3","215.12","113","60.03","29"
"06/08/12 11:02:45","95.6025","14.2","214.11","169","60.03","29"
"06/08/12 11:07:45","95.6046","27.9","210.51","260","60.03","29"
"06/08/12 11:12:46","95.6074","28.3","217.16","74","60.03","29"
"06/08/12 11:17:45","95.6099","44.1","216.33","287","60.03","29"
"06/08/12 11:22:46","95.6135","47.8","215.25","111","60.0","29"
"06/08/12 11:27:45","95.6173","44.5","215.67","372","60.0","29"
"06/08/12 11:32:46","95.6234","90.4","209.99","452","60.0","30"
"06/08/12 11:37:45","95.6297","69.9","215.61","351","60.03","30"
"06/08/12 11:47:45","95.6397","44.5","215.49","302","60.0","30"
"06/08/12 11:52:46","95.6432","64.2","215.99","260","60.0","30"
"06/08/12 11:57:46","95.6474","58.3","215.66","268","60.03","29"
"06/08/12 12:02:46","95.6505","30.5","216.1","77","60.0","29"
"06/08/12 12:07:45","95.6538","42.7","215.33","157","60.03","29"
"06/08/12 12:12:45","95.6575","34.9","214.44","313","60.03","28"
"06/08/12 12:17:45","95.6603","32.8","214.0","226","60.0","28"
"06/08/12 12:22:45","95.6614","11.7","214.14","49","60.03","28"
"06/08/12 12:27:45","95.6623","12.8","214.93","217","60.03","27"
"06/08/12 12:32:44","95.6646","32.8","215.39","229","60.03","27"
"06/08/12 12:37:45","95.6679","41.2","215.23","193","60.03","27"
"06/08/12 12:42:45","95.6714","41.6","215.71","318","60.03","27"
"06/08/12 12:47:45","95.6747","45.0","215.37","114","60.0","27"
"06/08/12 12:52:45","95.6775","29.7","214.9","94","60.0","28"
"06/08/12 12:57:45","95.6799","24.9","215.06","190","60.03","27"
"06/08/12 13:02:45","95.682","22.3","215.5","324","60.0","27"
"06/08/12 13:07:46","95.6842","36.3","215.45","96","60.0","27"
"06/08/12 13:12:44","95.6871","36.8","215.91","297","60.0","26"
"06/08/12 13:17:44","95.6908","45.2","216.21","104","60.0","26"
"06/08/12 13:22:45","95.6941","32.1","215.63","89","60.03","26"
"06/08/12 13:27:45","95.6973","40.7","215.13","288","60.03","26"
"06/08/12 13:32:45","95.7008","28.4","215.47","123","60.03","27"
"06/08/12 13:37:45","95.7026","24.5","214.37","48","60.0","26"
"06/08/12 13:42:46","95.7045","36.6","215.68","285","60.03","26"
"06/08/12 13:47:46","95.7065","29.7","215.01","91","60.0","26"
"06/08/12 13:52:44","95.7088","28.6","215.38","274","60.03","26"
"06/08/12 13:57:45","95.7123","50.2","215.81","354","60.07","26"
"06/08/12 14:02:45","95.7166","70.7","216.2","352","60.03","27"
"06/08/12 14:07:44","95.722","79.7","215.55","392","60.03","27"
"06/08/12 14:12:46","95.7276","69.6","215.63","344","60.0","28"
"06/08/12 14:17:45","95.7341","47.9","215.0","115","60.0","29"
"06/08/12 14:22:46","95.7394","63.0","215.46","320","60.0","30"
"06/08/12 14:27:45","95.742","17.6","214.35","214","60.03","30"
"06/08/12 14:32:46","95.7427","0.0","213.83","0","60.0","30"
"06/08/12 14:37:46","95.743","15.9","214.85","79","60.0","29"
"06/08/12 14:42:46","95.7447","32.0","214.52","84","60.03","28"
"06/08/12 14:47:44","95.7476","50.4","215.92","101","60.0","28"
"06/08/12 14:52:44","95.7532","84.1","216.19","407","60.0","28"
"06/08/12 14:57:45","95.7584","61.8","216.34","313","60.03","28"
"06/08/12 15:02:45","95.7635","70.5","215.18","351","60.0","29"
"06/08/12 15:07:45","95.7678","55.5","214.5","318","60.03","29"
"06/08/12 15:12:45","95.7711","34.3","215.09","132","60.03","29"
"06/08/12 15:17:45","95.7748","43.8","215.11","86","60.03","30"
"06/08/12 15:22:44","95.7785","35.5","215.24","273","60.03","30"
"06/08/12 15:27:45","95.7854","134.5","217.28","624","60.0","31"
"06/08/12 15:32:45","95.7953","117.6","217.24","552","60.0","32"
"06/08/12 15:37:45","95.8031","73.0","215.52","362","60.0","32"
"06/08/12 15:42:45","95.8074","57.5","215.42","242","60.0","32"
"06/08/12 15:47:44","95.8113","44.9","214.77","384","60.0","32"
"06/08/12 15:52:46","95.8149","50.3","214.58","368","60.0","32"
"06/08/12 15:57:46","95.8185","47.0","214.91","351","60.03","31"
"06/08/12 16:02:45","95.8218","44.0","215.79","379","60.0","31"
"06/08/12 16:07:45","95.8273","76.7","216.34","377","60.0","31"
"06/08/12 16:12:45","95.8342","110.5","217.39","519","60.0","31"
"06/08/12 16:17:45","95.8416","52.9","215.36","200","60.0","31"
"06/08/12 16:22:45","95.8447","35.3","214.88","160","60.0","31"
"06/08/12 16:27:44","95.8483","64.8","215.33","338","60.03","30"
"06/08/12 16:32:45","95.8519","57.2","215.17","205","60.03","30"
"06/08/12 16:37:45","95.8581","97.2","217.13","459","60.0","30"
"06/08/12 16:42:46","95.8653","76.5","216.44","377","60.0","30"
"06/08/12 16:47:46","95.871","42.0","214.87","126","60.03","30"
"06/08/12 16:52:45","95.8762","53.2","216.11","197","60.03","30"
"06/08/12 16:57:45","95.8796","25.2","215.67","87","60.03","29"
"06/08/12 17:02:45","95.8816","22.0","215.23","55","60.0","29"
"06/08/12 17:07:46","95.8849","47.7","216.0","382","60.0","29"
"06/08/12 17:12:45","95.8888","32.5","215.96","136","60.0","28"
"06/08/12 17:17:44","95.8929","44.8","216.34","104","60.03","28"
"06/08/12 17:22:46","95.8967","57.0","216.94","149","60.03","28"
"06/08/12 17:27:45","95.9006","43.4","216.34","348","60.03","28"
"06/08/12 17:32:46","95.9044","53.3","216.23","330","60.03","28"
"06/08/12 17:37:45","95.9079","36.1","215.71","95","60.03","28"
"06/08/12 17:42:46","95.9111","33.8","216.35","318","60.03","27"
"06/08/12 17:47:46","95.9138","37.8","215.93","104","60.03","27"
"06/08/12 17:52:45","95.9163","28.0","214.71","108","60.03","27"
"06/08/12 17:57:46","95.9177","18.3","215.44","207","60.07","26"
"06/08/12 18:02:45","95.9196","36.6","216.12","263","60.03","26"
"06/08/12 18:07:46","95.9214","31.3","216.02","82","60.03","26"
"06/08/12 18:12:45","95.924","32.4","214.11","104","60.03","26"
"06/08/12 18:17:45","95.9263","32.3","214.1","247","60.03","26"
"06/08/12 18:22:45","95.928","13.1","214.43","69","60.0","26"
"06/08/12 18:27:46","95.9293","14.8","214.35","119","60.03","26"
"06/08/12 18:32:45","95.9303","15.2","213.92","174","60.03","26"
"06/08/12 18:37:46","95.9312","14.5","213.8","0","60.03","25"
"06/08/12 18:42:46","95.9321","15.8","213.42","147","60.03","25"
"06/08/12 18:47:46","95.9327","0.0","213.19","0","60.03","25"
"06/08/12 18:52:46","95.9333","0.0","213.86","0","60.03","24"
"06/08/12 18:57:45","95.9338","15.0","213.71","38","60.03","24"
"06/08/12 19:02:46","95.9349","15.9","213.39","11","60.03","24"
"06/08/12 19:07:45","95.9359","0.0","213.62","1","60.03","24"
"06/08/12 19:12:46","95.9365","8.4","213.67","0","60.03","24"
"06/08/12 19:17:45","95.9369","7.6","213.67","0","60.03","24"
"06/08/12 19:22:46","95.9373","0.0","213.67","0","60.03","23"
"06/08/12 19:27:44","95.9375","13.4","213.59","5","60.03","23"
"06/08/12 19:32:46","95.9378","10.9","213.64","2","60.0","23"
"06/08/12 19:37:46","95.9381","0.0","213.7","0","60.03","23"
"06/08/12 19:42:46","95.9384","12.7","213.22","0","60.0","23"
"06/08/12 19:47:46","95.9387","10.7","212.83","58","60.03","23"
"06/08/12 19:52:45","95.9392","14.6","213.04","10","60.03","23"
"06/08/12 19:57:45","95.9396","14.7","213.11","0","60.0","23"
"06/08/12 20:02:46","95.94","0.0","212.5","0","60.0","22"
"06/08/12 20:07:46","95.9403","14.2","213.5","14","60.0","22"
"06/09/12 05:52:46","95.941","0.0","214.08","0","60.03","19"
"06/09/12 05:57:46","95.9413","0.0","213.87","76","60.03","19"
"06/09/12 06:02:46","95.9417","0.0","215.66","0","60.03","20"
"06/09/12 06:07:46","95.9422","0.0","215.15","0","60.03","20"
"06/09/12 06:12:47","95.9427","0.0","215.0","0","60.03","20"
"06/09/12 06:17:47","95.9433","10.3","214.31","0","60.0","20"
"06/09/12 06:22:46","95.9438","15.2","214.29","4","60.0","21"
"06/09/12 06:27:45","95.9445","16.3","214.4","127","60.0","21"
"06/09/12 06:32:46","95.9454","15.3","214.22","24","60.03","22"
"06/09/12 06:37:46","95.9463","15.0","213.91","23","60.0","22"
"06/09/12 06:42:45","95.9473","16.5","214.33","1","60.0","22"
"06/09/12 06:47:47","95.9483","15.2","214.4","206","60.03","22"
"06/09/12 06:52:46","95.9494","11.5","213.89","17","60.0","23"
"06/09/12 06:57:46","95.9508","14.2","214.41","118","60.03","23"
"06/09/12 07:02:46","95.9526","13.2","214.28","165","60.0","23"
"06/09/12 07:07:45","95.9543","28.5","214.7","226","60.0","24"
"06/09/12 07:12:46","95.9569","18.3","214.01","113","60.03","24"
"06/09/12 07:17:45","95.9583","21.2","213.33","215","60.03","25"
"06/09/12 07:22:45","95.9608","29.9","214.02","158","60.0","25"
"06/09/12 07:27:45","95.9626","33.0","215.4","295","60.0","25"
"06/09/12 07:32:46","95.9649","27.6","214.45","37","60.0","26"
"06/09/12 07:37:46","95.9669","36.7","215.36","151","60.03","26"
"06/09/12 07:42:47","95.9696","32.7","215.51","248","60.03","26"
"06/09/12 07:47:47","95.9719","19.2","214.64","240","60.0","27"
"06/09/12 07:52:45","95.9736","45.5","215.7","292","60.0","27"
"06/09/12 07:57:46","95.977","42.9","215.35","334","60.03","27"
"06/09/12 08:02:46","95.9797","75.7","215.84","373","60.03","28"
"06/09/12 08:07:45","95.9824","26.5","214.33","64","60.0","28"
"06/09/12 08:12:46","95.9859","77.6","215.33","381","60.03","29"
"06/09/12 08:17:45","95.9897","30.2","214.4","190","60.0","29"
"06/09/12 08:22:45","95.9952","77.0","215.17","382","60.03","30"
"06/09/12 08:27:46","96.0007","31.4","214.62","182","60.03","31"
"06/09/12 08:32:45","96.0051","60.6","214.46","390","60.03","32"
"06/09/12 08:37:46","96.0098","26.9","214.42","168","60.03","32"
"06/09/12 08:42:47","96.0148","73.5","215.09","367","60.03","32"
"06/09/12 08:47:46","96.0223","97.9","216.49","465","60.0","32"
"06/09/12 08:52:46","96.0285","103.9","216.52","493","60.0","32"
"06/09/12 08:57:46","96.0351","106.2","216.42","506","60.0","32"
"06/09/12 09:02:45","96.0428","100.1","216.01","477","60.03","32"
"06/09/12 09:07:45","96.05","16.2","213.99","276","60.0","32"
"06/09/12 09:12:45","96.0576","101.4","215.91","485","60.0","33"
"06/09/12 09:17:45","96.0656","103.7","217.16","490","60.0","33"
"06/09/12 09:22:46","96.0737","105.5","217.41","500","60.0","33"
"06/09/12 09:27:46","96.0821","108.7","217.41","508","60.0","34"
"06/09/12 09:32:45","96.0905","110.2","217.12","515","60.03","34"
"06/09/12 09:37:47","96.0993","112.2","216.19","526","60.0","35"
"06/09/12 09:42:46","96.108","114.6","216.78","536","60.03","35"
"06/09/12 09:47:46","96.117","114.8","216.31","542","60.0","36"
"06/09/12 09:52:46","96.1259","117.2","216.79","548","60.0","36"
"06/09/12 09:57:45","96.1351","119.9","216.57","558","60.03","36"
"06/09/12 10:02:45","96.1444","122.2","216.51","569","60.03","35"
"06/09/12 10:07:46","96.1539","118.3","216.06","557","60.03","35"
"06/09/12 10:12:46","96.163","119.8","216.04","562","60.0","35"
"06/09/12 10:17:45","96.1724","121.6","215.74","571","60.0","35"
"06/09/12 10:22:46","96.182","125.6","216.69","584","60.0","35"
"06/09/12 10:27:46","96.192","123.3","216.55","572","60.0","35"
"06/09/12 10:32:46","96.2015","125.5","216.84","581","60.03","34"
"06/09/12 10:37:46","96.2114","131.0","217.21","609","59.96","34"
"06/09/12 10:42:46","96.2211","131.2","217.21","607","60.0","34"
"06/09/12 10:47:45","96.2314","132.8","217.46","613","60.0","35"
"06/09/12 10:52:45","96.2418","134.9","217.92","621","60.03","35"
"06/09/12 10:57:46","96.2525","136.8","217.71","631","60.03","35"
"06/09/12 11:02:45","96.2634","142.5","218.61","654","60.03","36"
"06/09/12 11:07:45","96.2744","139.6","217.59","645","60.0","36"
"06/09/12 11:12:46","96.2853","141.4","217.48","652","60.0","36"
"06/09/12 11:17:45","96.2963","141.2","217.63","646","60.03","37"
"06/09/12 11:22:45","96.3077","111.4","217.21","512","60.0","38"
"06/09/12 11:27:47","96.3179","159.8","218.28","727","60.0","37"
"06/09/12 11:32:46","96.3284","157.3","217.98","719","60.03","38"
"06/09/12 11:37:46","96.3399","123.0","217.26","569","60.0","38"
"06/09/12 11:42:46","96.3507","139.8","218.04","641","60.03","38"
"06/09/12 11:47:46","96.3618","141.8","217.39","654","60.07","38"
"06/09/12 11:52:46","96.3726","140.0","217.44","643","60.0","38"
"06/09/12 11:57:46","96.3834","141.8","217.96","653","60.03","38"
"06/09/12 12:02:46","96.3944","138.7","218.55","637","60.03","39"
"06/09/12 12:07:46","96.4051","127.7","218.32","590","60.03","39"
"06/09/12 12:12:46","96.4147","118.2","217.74","548","60.0","38"
"06/09/12 12:17:45","96.4252","55.5","215.34","367","60.0","39"
"06/09/12 12:22:45","96.4354","161.0","219.21","727","60.0","38"
"06/09/12 12:27:46","96.4465","140.3","218.19","641","60.03","38"
"06/09/12 12:32:47","96.4575","154.0","218.19","703","60.03","38"
"06/09/12 12:37:45","96.4674","124.1","218.38","577","60.03","38"
"06/09/12 12:42:47","96.4759","138.6","218.48","636","60.03","37"
"06/09/12 12:47:46","96.4859","147.3","218.39","673","60.0","37"
"06/09/12 12:52:45","96.495","129.9","218.03","602","60.0","36"
"06/09/12 12:57:45","96.5061","146.5","217.99","671","60.0","36"
"06/09/12 13:02:45","96.5174","144.6","218.05","661","60.03","36"
"06/09/12 13:07:45","96.5285","144.7","217.78","660","60.03","37"
"06/09/12 13:12:45","96.5396","141.3","218.0","643","60.03","37"
"06/09/12 13:17:46","96.5507","140.7","218.31","647","60.03","37"
"06/09/12 13:22:46","96.5615","140.2","218.32","644","60.03","37"
"06/09/12 13:27:47","96.5721","140.2","217.85","643","60.0","37"
"06/09/12 13:32:46","96.5828","142.0","217.92","654","60.0","38"
"06/09/12 13:37:46","96.5937","137.0","218.47","630","60.0","38"
"06/09/12 13:42:46","96.6044","136.5","217.44","627","60.0","38"
"06/09/12 13:47:47","96.6151","137.5","217.78","629","60.03","38"
"06/09/12 13:52:47","96.6255","135.1","217.69","622","60.03","38"
"06/09/12 13:57:46","96.6359","133.2","217.78","615","60.03","38"
"06/09/12 14:02:46","96.6463","134.9","218.7","619","60.03","38"
"06/09/12 14:07:46","96.6569","134.6","218.27","622","60.0","38"
"06/09/12 14:12:47","96.6671","128.9","217.9","596","60.0","38"
"06/09/12 14:17:46","96.6774","133.2","217.47","617","60.03","39"
"06/09/12 14:22:45","96.6876","131.0","216.81","606","60.0","39"
"06/09/12 14:27:46","96.6978","130.5","217.67","604","60.0","39"
"06/09/12 14:32:47","96.7075","120.4","217.49","560","60.0","39"
"06/09/12 14:37:45","96.7172","124.6","216.61","581","60.0","39"
"06/09/12 14:42:45","96.7266","121.3","216.81","565","60.0","40"
"06/09/12 14:47:46","96.736","117.7","216.78","552","60.0","40"
"06/09/12 14:52:46","96.7452","121.6","216.89","566","60.0","39"
"06/09/12 14:57:45","96.7547","124.4","217.04","577","60.0","40"
"06/09/12 15:02:45","96.7642","119.4","217.09","554","60.0","40"
"06/09/12 15:07:47","96.7729","102.4","216.59","485","60.03","40"
"06/09/12 15:12:46","96.7801","92.0","215.13","444","60.03","40"
"06/09/12 15:17:45","96.7878","103.2","215.91","490","60.0","40"
"06/09/12 15:22:47","96.7959","96.0","216.04","459","60.0","40"
"06/09/12 15:27:45","96.8021","63.5","214.6","322","60.03","39"
"06/09/12 15:32:46","96.8073","72.1","215.19","360","60.03","39"
"06/09/12 15:37:45","96.8133","85.6","215.28","411","60.0","39"
"06/09/12 15:42:47","96.8211","104.9","216.09","496","60.03","39"
"06/09/12 15:47:46","96.8289","93.1","216.15","444","60.03","40"
"06/09/12 15:52:46","96.8357","84.7","215.89","411","60.03","40"
"06/09/12 15:57:45","96.8415","68.0","215.17","341","60.0","40"
"06/09/12 16:02:46","96.8471","78.7","216.38","387","60.03","39"
"06/09/12 16:07:47","96.8545","98.2","215.95","472","60.03","39"
"06/09/12 16:12:46","96.8615","84.9","215.3","414","60.03","39"
"06/09/12 16:17:45","96.8683","91.6","215.69","442","60.0","39"
"06/09/12 16:22:46","96.875","87.7","215.8","425","60.03","38"
"06/09/12 16:27:46","96.8814","77.9","215.85","383","60.0","38"
"06/09/12 16:32:46","96.8878","84.6","215.88","410","60.03","38"
"06/09/12 16:37:46","96.8939","61.3","214.73","313","60.03","37"
"06/09/12 16:42:46","96.8992","77.8","215.54","380","60.03","37"
"06/09/12 16:47:46","96.9035","61.1","215.94","86","60.0","36"
"06/09/12 16:52:46","96.9082","80.8","215.41","394","60.03","36"
"06/09/12 16:57:46","96.9143","74.4","215.92","368","60.0","36"
"06/09/12 17:02:46","96.9197","66.7","215.93","336","60.03","35"
"06/09/12 17:07:47","96.9247","61.8","215.15","312","60.03","34"
"06/09/12 17:12:46","96.9287","48.8","216.37","85","60.03","34"
"06/09/12 17:17:46","96.9325","56.1","215.6","167","60.03","33"
"06/09/12 17:22:45","96.9364","43.5","215.99","360","60.03","33"
"06/09/12 17:27:46","96.94","53.6","215.66","116","60.03","32"
"06/09/12 17:32:47","96.9435","37.0","216.01","98","60.03","32"
"06/09/12 17:37:46","96.9467","45.6","214.74","143","60.03","31"
"06/09/12 17:42:45","96.9496","30.3","213.87","121","60.03","31"
"06/09/12 17:47:45","96.9523","27.6","214.1","69","60.03","30"
"06/09/12 17:52:46","96.9546","30.7","214.05","72","60.03","30"
"06/09/12 17:57:46","96.9567","15.7","214.22","168","60.0","29"
"06/09/12 18:02:47","96.9585","16.2","214.25","233","60.03","29"
"06/09/12 18:07:45","96.9601","19.0","213.71","233","60.0","28"
"06/09/12 18:12:46","96.9615","13.1","214.2","40","60.03","28"
"06/09/12 18:17:47","96.9626","11.8","214.32","5","60.03","28"
"06/09/12 18:22:46","96.9635","14.2","213.94","90","60.03","27"
"06/09/12 18:27:45","96.9644","13.1","213.76","3","60.0","27"
"06/09/12 18:32:48","96.965","0.0","213.82","60","60.03","27"
"06/09/12 18:37:47","96.9656","15.4","214.02","30","60.03","27"
"06/09/12 18:42:46","96.9661","14.0","213.67","2","60.03","27"
"06/09/12 18:47:47","96.9666","0.0","213.72","0","60.03","27"
"06/09/12 18:52:45","96.9671","14.7","213.15","243","60.0","27"
"06/09/12 18:57:46","96.9675","15.0","213.31","2","60.0","27"
"06/09/12 19:02:47","96.9679","0.0","214.05","0","60.03","26"
"06/09/12 19:07:45","96.9683","0.0","213.84","0","60.0","26"
"06/09/12 19:12:46","96.9686","11.2","214.43","30","60.03","26"
"06/09/12 19:17:47","96.9689","0.0","213.97","0","60.03","26"
"06/09/12 19:22:47","96.9691","0.0","214.39","0","60.03","26"
"06/09/12 19:32:46","96.9696","0.0","213.45","0","60.0","26"
"06/09/12 19:37:46","96.9699","0.0","213.35","0","60.0","26"
"06/10/12 06:07:04","96.9713","0.0","212.96","35","60.03","23"
"06/10/12 06:12:04","96.9716","0.0","213.73","0","60.0","23"
"06/10/12 06:17:05","96.9718","14.1","213.73","1","60.03","23"
"06/10/12 06:22:03","96.9722","0.0","212.65","0","60.03","24"
"06/10/12 06:27:04","96.9727","0.0","214.36","139","60.03","24"
"06/10/12 06:32:04","96.9733","11.0","214.45","9","60.0","24"
"06/10/12 06:37:05","96.9741","12.0","214.36","0","60.03","24"
"06/10/12 06:42:05","96.9751","20.9","214.0","51","60.03","25"
"06/10/12 06:47:03","96.9763","14.6","213.65","158","60.03","25"
"06/10/12 06:52:03","96.9777","11.6","213.58","14","60.03","25"
"06/10/12 06:57:05","96.9792","12.4","214.41","167","60.03","25"
"06/10/12 07:02:04","96.9811","13.9","213.36","322","60.0","26"
"06/10/12 07:07:04","96.9831","30.7","213.81","85","60.03","26"
"06/10/12 07:12:03","96.9855","36.8","214.59","190","60.0","27"
"06/10/12 07:17:04","96.9881","40.0","214.34","185","60.0","27"
"06/10/12 07:22:04","96.991","41.7","214.17","325","60.0","27"
"06/10/12 07:27:04","96.9941","48.0","213.7","125","60.03","27"
"06/10/12 07:32:04","96.9975","37.1","213.64","161","60.0","28"
"06/10/12 07:37:04","97.0009","40.0","214.51","108","60.0","28"
"06/10/12 07:42:04","97.0048","55.7","214.65","205","60.03","29"
"06/10/12 07:47:05","97.0087","44.6","213.99","375","60.0","29"
"06/10/12 07:52:03","97.0126","48.1","214.22","389","60.0","30"
"06/10/12 07:57:03","97.0166","61.6","214.72","190","60.0","30"
"06/10/12 08:02:04","97.0207","67.6","214.61","245","60.0","31"
"06/10/12 08:07:04","97.025","58.7","215.01","429","60.0","31"
"06/10/12 08:12:05","97.0297","73.3","214.91","319","60.0","32"
"06/10/12 08:17:04","97.0352","72.7","215.97","361","60.0","32"
"06/10/12 08:22:04","97.0406","67.3","216.0","338","59.96","33"
"06/10/12 08:27:05","97.0461","70.8","216.2","350","60.0","33"
"06/10/12 08:32:03","97.0517","78.2","216.03","384","60.0","33"
"06/10/12 08:37:05","97.058","84.4","216.58","408","60.03","34"
"06/10/12 08:42:04","97.0647","83.8","217.5","408","60.03","34"
"06/10/12 08:47:04","97.0709","79.0","216.3","385","60.03","35"
"06/10/12 08:52:04","97.0774","89.8","216.38","434","60.03","35"
"06/10/12 08:57:05","97.0847","95.2","217.43","455","60.03","35"
"06/10/12 09:02:04","97.092","95.3","217.04","455","60.03","36"
"06/10/12 09:07:04","97.0996","99.6","217.23","475","60.0","36"
"06/10/12 09:12:04","97.1075","103.2","217.14","487","60.0","36"